This is the latest recevied weather packets stored in our database for station/object XE2KK-10. If no packets are shown the sender has not sent any weather packets the latest 10 day(s).
| Time | Temp. | Humidity | Pressure | Rain* | Wind** | Luminosity | Snow |
|---|---|---|---|---|---|---|---|
| 1778182453 | 26.67° C | 68% | 1013.2 hPa | 0 mm | - | 65 W/m² | - |
| 1778182153 | 26.67° C | 67% | 1013 hPa | 0 mm | - | 67 W/m² | - |
| 1778181853 | 27.22° C | 67% | 1013 hPa | 0 mm | - | 75 W/m² | - |
| 1778181552 | 27.22° C | 66% | 1013.2 hPa | 0 mm | - | 123 W/m² | - |
| 1778181252 | 27.78° C | 65% | 1012.8 hPa | 0 mm | - | 161 W/m² | - |
| 1778180953 | 27.78° C | 64% | 1013.1 hPa | 0 mm | - | 173 W/m² | - |
| 1778180653 | 28.33° C | 64% | 1012.9 hPa | 0 mm | - | 231 W/m² | - |
| 1778180353 | 28.89° C | 63% | 1013.8 hPa | 0 mm | - | 107 W/m² | - |
| 1778180053 | 29.44° C | 61% | 1013.4 hPa | 0 mm | - | 150 W/m² | - |
| 1778179752 | 29.44° C | 61% | 1013.2 hPa | 0 mm | - | 258 W/m² | - |
| 1778179452 | 30° C | 60% | 1012.9 hPa | 0 mm | - | 259 W/m² | - |
| 1778179153 | 30° C | 59% | 1013 hPa | 0 mm | - | 265 W/m² | - |
| 1778178853 | 30° C | 59% | 1012.8 hPa | 0 mm | - | 316 W/m² | - |
| 1778178553 | 30° C | 60% | 1013 hPa | 0 mm | - | 363 W/m² | - |
| 1778178253 | 30.56° C | 58% | 1012.8 hPa | 0 mm | - | 363 W/m² | - |
| 1778177952 | 31.11° C | 57% | 1012.7 hPa | 0 mm | - | 827 W/m² | - |
| 1778177652 | 30.56° C | 59% | 1012.9 hPa | 0 mm | - | 877 W/m² | - |
| 1778177353 | 30.56° C | 58% | 1012.9 hPa | 0 mm | - | 815 W/m² | - |
| 1778177053 | 30° C | 60% | 1012.9 hPa | 0 mm | - | 787 W/m² | - |
| 1778176753 | 30.56° C | 59% | 1013 hPa | 0 mm | - | 772 W/m² | - |
| 1778176453 | 30° C | 60% | 1013.2 hPa | 0 mm | - | 769 W/m² | - |
| 1778176152 | 30° C | 59% | 1013.3 hPa | 0 mm | - | 766 W/m² | - |
| 1778175852 | 30° C | 61% | 1013.1 hPa | 0 mm | - | 763 W/m² | - |
| 1778175553 | 30° C | 61% | 1013.2 hPa | 0 mm | - | 753 W/m² | - |
| 1778175253 | 29.44° C | 61% | 1013.4 hPa | 0 mm | - | 759 W/m² | - |
* Rain latest hour (hover to see other rain measurements)
** Current wind speed in m/s (hover to see current wind gust speed)